Location: Blazny
(46.0612°N, 84.4033°W)
Time: 09:30:12
(UTC-04:00)

ARIANE 6 FM1 Upper Stage - Pass Details

Date: 21 September 2024
Orbit: 564 x 594 km, 62.0° (Epoch: 03 October)

Event Time Altitude Azimuth Distance (km) Brightness Sun altitude
Rises 22:22:17 0° 248° (WSW) 2,783 6.6 -28.1°
Reaches altitude 10° 22:24:42 10° 258° (WSW) 1,893 5.8 -28.5°
Maximum altitude 22:28:34 32° 323° (NW) 1,013 4.4 -29.0°
Enters shadow 22:29:41 28° 353° (N) 1,119 4.5 -29.2°
